Theta_e
340 333 334 334 335 335 336 338 338 345 344 344 344 341 339 338 338 337 336 336 334 333 333 332 329 333 332 334 334 335 334 335
341 334 333 334 336 336 335 337 335 344 343 344 343 342 341 338 338 337 336 335 333 331 331 330 327 331 332 332 332 334 333 334
345 335 334 334 336 336 336 336 336 337 342 343 343 341 341 339 337 336 335 334 333 328 329 329 325 331 332 331 332 333 334 334
346 344 338 336 337 336 336 336 336 337 338 339 341 340 340 338 337 336 335 334 333 329 330 330 329 332 331 329 332 332 333 333
347 346 346 342 343 341 336 336 336 336 336 336 336 339 337 338 337 335 334 332 331 331 329 328 329 330 331 329 331 331 331 330
347 346 346 345 341 340 337 337 337 335 335 336 335 338 337 337 336 334 333 332 331 329 328 327 326 328 331 329 330 331 331 331
346 345 343 343 343 342 339 340 339 338 338 339 338 337 336 336 335 334 332 332 331 329 328 327 326 327 329 329 330 330 330 330
346 345 346 340 341 342 342 342 340 341 341 340 339 337 336 336 335 333 332 331 329 328 328 327 326 327 326 328 330 330 329 329
346 346 345 342 341 343 342 342 342 341 341 339 338 337 336 335 334 332 333 331 331 329 328 327 326 326 327 327 328 329 329 327
344 346 345 343 341 343 340 340 339 338 339 339 337 337 336 335 334 332 332 332 331 329 327 328 326 326 326 327 328 328 329 327
339 345 345 343 343 342 341 338 337 336 336 336 336 335 335 335 333 332 332 332 330 329 327 327 327 325 326 327 327 326 327 324
331 344 344 341 342 341 340 337 335 336 335 334 334 333 334 333 332 332 332 331 330 330 328 327 325 327 327 328 327 324 325 323
331 342 342 341 340 340 337 335 335 334 334 332 332 332 333 333 332 331 331 330 330 329 327 326 326 326 326 326 324 321 323 323
335 342 342 341 340 339 337 336 334 332 333 331 331 332 333 332 331 331 330 329 329 329 328 327 326 326 325 323 322 321 321 322
340 342 341 340 340 337 336 334 332 331 330 329 329 329 331 331 331 331 330 329 329 328 328 327 326 326 325 322 322 322 321 321
340 341 340 339 340 337 336 332 331 330 329 328 328 328 329 330 330 329 329 329 328 328 328 326 325 325 325 323 322 322 321 321
341 340 339 339 338 336 335 332 331 331 329 329 327 328 329 329 330 329 329 328 327 328 327 325 324 324 324 324 323 321 321 320
340 339 339 338 336 336 333 332 330 330 330 329 329 329 329 329 329 328 327 326 326 328 327 326 324 324 324 323 322 321 321 320
339 338 338 337 336 336 333 333 331 329 328 329 330 330 328 327 326 327 328 327 326 326 327 326 324 324 324 323 322 322 321 321
335 337 337 335 335 335 334 332 330 329 329 328 328 326 325 324 323 324 325 325 326 326 326 326 325 324 324 323 323 321 322 322
Wind_Speed
16 18 19 18 18 17 16 15 14 15 15 14 13 15 18 18 18 17 19 19 20 20 19 23 18 14 14 20 16 19 20 22
15 18 19 19 19 18 18 17 14 15 14 14 14 15 17 18 19 22 22 21 21 20 18 19 18 18 18 20 13 18 20 25
18 18 19 18 19 19 19 18 17 15 16 16 15 17 18 21 23 24 24 22 23 19 16 14 18 22 22 21 16 19 22 25
20 18 19 19 18 20 20 20 19 18 16 16 17 18 21 22 23 24 24 23 22 20 19 16 18 21 24 24 19 19 22 25
25 20 19 21 21 20 21 21 19 19 17 17 17 20 21 23 25 26 25 24 24 23 23 21 19 22 26 24 20 18 23 21
32 29 26 24 21 22 20 21 20 19 19 18 20 22 23 25 29 31 29 29 28 29 26 26 21 20 24 26 21 20 27 25
38 33 33 31 24 24 21 23 21 19 21 22 20 24 26 26 29 33 33 32 31 30 26 26 24 21 22 27 25 22 26 28
40 37 35 31 32 27 25 26 24 23 23 25 26 25 25 27 25 27 34 37 31 28 31 30 28 25 25 27 28 27 26 28
38 43 38 34 35 28 27 27 27 25 23 23 23 24 24 25 27 24 31 37 30 30 31 29 26 24 21 27 30 29 25 29
41 45 43 38 37 32 33 25 22 22 24 22 22 22 22 21 22 21 24 25 26 29 27 25 25 22 24 24 29 29 31 29
36 41 45 41 38 34 31 26 24 21 22 22 22 20 20 19 21 22 24 24 26 26 27 27 25 21 27 28 27 28 32 31
31 41 46 44 37 30 26 24 26 26 22 21 20 18 19 19 21 22 26 26 26 26 27 28 25 21 18 24 23 27 37 33
34 35 36 39 35 33 29 30 29 26 22 19 21 20 23 22 23 23 26 27 27 26 26 26 20 22 12 13 15 30 36 36
35 38 39 39 34 31 29 32 27 27 25 21 23 22 24 25 26 27 29 28 25 24 25 20 16 26 9 12 4 9 20 26
37 40 40 37 33 32 27 26 24 24 25 24 24 22 25 25 26 27 28 28 27 25 27 26 18 26 25 7 4 4 9 12
37 39 39 37 37 33 34 26 19 18 28 26 25 26 24 24 27 27 28 30 27 30 31 33 23 24 30 23 12 18 7 2
37 40 39 40 39 38 36 27 22 20 25 25 24 26 27 25 27 26 25 26 27 30 33 32 32 28 29 32 18 23 20 6
38 39 37 42 40 35 33 31 26 25 27 27 26 26 27 24 23 24 26 27 30 32 36 34 34 30 30 26 23 15 17 8
24 36 32 39 38 35 31 32 30 28 29 29 29 29 24 21 20 22 25 28 30 33 35 35 36 37 35 32 28 19 27 22
24 29 29 29 33 31 31 31 28 27 31 29 28 24 20 20 20 20 23 28 25 31 33 37 36 38 38 33 30 28 19 27
Wind_Direction
181 176 171 171 172 172 174 176 180 177 183 184 188 186 190 192 190 181 182 180 172 167 163 151 150 179 177 171 157 154 151 148
183 183 178 176 177 177 176 177 181 173 179 186 184 188 191 192 188 187 186 187 176 171 171 161 154 168 176 179 168 162 160 155
187 190 184 183 184 182 182 179 176 176 179 184 186 192 194 192 192 190 190 191 191 188 180 170 168 166 171 179 169 164 162 161
189 191 191 184 187 190 188 184 179 181 182 186 190 195 194 195 196 193 189 191 191 190 177 180 181 180 175 179 177 170 169 165
190 190 196 190 192 188 189 192 184 184 187 187 187 191 195 196 190 190 186 186 176 174 174 176 199 193 179 182 186 183 181 177
195 195 191 194 197 195 189 191 186 188 192 192 188 191 195 197 192 188 180 182 179 180 183 190 193 211 191 182 184 185 184 176
197 199 197 199 195 199 192 194 186 187 188 194 193 197 197 200 207 194 189 187 185 190 204 194 192 199 204 191 183 187 182 178
193 200 199 197 189 203 197 197 188 188 191 197 200 203 204 207 215 209 197 193 196 206 198 196 200 198 200 209 190 186 187 176
184 198 198 190 189 197 197 183 181 186 189 195 205 208 210 212 218 224 209 205 209 202 201 200 200 204 211 210 202 183 183 178
183 189 195 189 187 189 188 184 184 196 201 201 204 206 209 209 214 219 214 206 197 196 196 196 205 212 218 216 213 191 187 180
193 184 190 187 189 189 191 202 199 209 206 202 203 207 208 206 209 208 201 198 199 200 204 205 207 221 219 221 208 179 177 174
203 182 188 183 181 185 194 196 201 206 207 197 198 203 199 200 200 196 198 198 200 201 205 202 205 201 221 209 189 181 168 170
196 182 176 170 170 173 176 182 195 201 195 191 199 197 195 190 189 191 197 199 203 200 197 193 195 198 206 151 202 179 162 168
184 175 175 174 174 173 174 179 189 194 195 194 198 197 201 197 198 200 198 202 199 199 195 180 188 189 163 146 162 138 152 165
175 173 174 172 173 163 161 168 177 188 196 198 203 203 205 204 203 205 199 200 199 202 200 184 178 180 173 166 143 169 132 160
172 170 167 170 177 169 172 170 173 194 192 199 203 203 204 204 210 215 215 205 205 203 206 198 178 177 181 196 237 158 160 155
164 164 167 171 176 174 178 177 188 187 191 193 195 203 209 212 217 219 220 220 213 207 199 192 189 182 185 192 215 177 173 154
167 167 167 173 172 175 178 183 185 183 185 196 196 202 206 207 211 216 219 221 217 203 202 193 188 189 189 189 181 177 176 153
184 164 165 174 174 176 177 185 190 195 190 189 181 177 181 197 205 209 218 224 222 218 208 198 193 189 189 190 188 185 182 185
174 164 163 169 173 177 180 181 191 198 187 182 184 188 202 208 210 216 223 224 220 216 212 199 195 189 191 191 193 199 206 193